Probability
0 0 0 0 0 0 0 0 0 0 0 0 0 0 0 0 0 0 0 3 3 3 3 3 3 0 0 0 0 0 3 3 3 3 3 3 3 3 3 3 3 3 3 3
0 0 0 0 0 0 0 0 0 0 0 0 0 0 0 0 0 0 0 3 3 3 3 3 0 0 0 0 0 0 0 0 3 3 3 3 3 3 3 3 3 3 3 3
0 0 0 0 0 0 0 0 0 0 0 0 0 0 0 0 0 0 0 0 3 3 0 0 0 0 0 0 0 0 0 0 0 0 0 0 0 3 3 3 3 3 3 3
0 0 0 0 0 0 0 0 0 0 0 0 0 0 0 0 0 0 0 0 0 0 0 0 0 0 0 0 0 0 0 0 0 0 0 0 0 0 0 0 3 3 3 3
0 0 0 0 0 0 0 0 0 0 0 0 0 0 0 0 0 0 0 0 0 0 0 0 0 0 0 0 0 0 0 0 0 0 0 0 0 0 0 0 0 0 0 3
0 0 0 0 0 0 0 0 0 0 0 0 0 0 0 0 0 0 0 0 0 0 0 0 0 0 0 0 0 0 0 0 0 0 0 0 0 0 0 0 0 0 0 0
0 0 0 0 0 0 0 0 0 0 0 0 0 0 0 0 0 0 0 0 0 0 0 0 0 0 0 0 0 0 0 0 0 0 0 0 0 0 0 0 0 0 0 0
0 0 0 0 0 0 0 0 0 0 0 0 0 0 0 0 0 0 0 0 0 0 0 0 0 0 0 0 0 0 0 0 0 0 0 0 0 0 0 0 0 0 0 0
0 0 0 0 0 0 0 0 0 0 0 0 0 0 0 0 0 0 0 0 0 0 0 0 0 0 0 0 0 0 0 0 0 0 0 0 0 0 0 0 0 0 0 0
0 0 0 0 0 0 0 0 0 0 0 0 0 0 0 0 0 0 0 0 0 0 0 0 0 0 0 0 0 0 0 0 0 0 0 0 0 0 0 0 0 0 0 0
0 0 0 0 0 0 0 0 0 0 0 0 0 0 0 0 0 0 0 0 0 0 0 0 0 0 0 0 0 0 0 0 0 0 0 0 0 0 0 0 0 0 0 0
0 0 0 0 0 0 0 0 0 0 0 0 0 0 0 0 0 0 0 0 0 0 0 0 0 0 0 0 0 0 0 0 0 0 0 0 0 0 0 0 0 0 0 0
0 0 0 0 0 0 0 0 0 0 0 0 0 0 0 0 0 0 0 0 0 0 0 0 0 0 0 0 0 0 0 0 0 0 0 0 0 0 0 0 0 0 0 0
0 0 0 0 0 0 0 0 0 0 0 0 0 0 0 0 0 0 0 0 0 0 0 0 0 0 0 0 0 0 0 0 0 0 0 0 0 0 0 0 0 0 0 0
0 0 0 0 0 0 0 0 0 0 0 0 0 0 0 0 0 0 0 0 0 0 0 0 0 0 0 0 0 0 0 0 0 0 0 0 0 0 0 0 0 0 0 0
0 0 0 0 0 0 0 0 0 0 0 0 0 0 0 0 0 0 0 0 0 0 0 0 0 0 0 0 0 0 0 0 0 0 0 0 0 0 0 0 0 0 0 0
0 0 0 0 0 0 0 0 0 0 0 0 0 0 0 0 0 0 0 0 0 0 0 0 0 0 0 0 0 0 0 0 0 0 0 0 0 0 0 0 0 0 0 0
0 0 0 0 0 0 0 0 0 0 0 0 0 0 0 0 0 0 0 0 0 0 0 0 0 0 0 0 0 0 0 0 0 0 0 0 0 0 0 0 0 0 0 0
0 0 0 0 0 0 0 0 0 0 0 0 0 0 0 0 0 0 0 0 0 0 0 0 0 0 0 0 0 0 0 0 0 0 0 0 0 0 0 0 0 0 0 0
0 0 0 0 0 0 0 0 0 0 0 0 0 0 0 0 0 0 0 0 0 0 0 0 0 0 0 0 0 0 0 0 0 0 0 0 0 0 0 0 0 0 0 0
0 0 0 0 0 0 0 0 0 0 0 0 0 0 0 0 0 0 0 0 0 0 0 0 0 0 0 0 0 0 0 0 0 0 0 0 0 0 0 0 0 0 0 0
0 0 0 0 0 0 0 0 0 0 0 0 0 0 0 0 0 0 0 0 0 0 0 0 0 0 0 0 0 0 0 0 0 0 0 0 0 0 0 0 0 0 0 0
0 0 0 0 0 0 0 0 0 0 0 0 0 0 0 0 0 0 0 0 0 0 0 0 0 0 0 0 0 0 0 0 0 0 0 0 0 0 0 0 0 0 0 0
0 0 0 0 0 0 0 0 0 0 0 0 0 0 0 0 0 0 0 0 0 0 0 0 0 0 0 0 0 0 0 0 0 0 0 0 0 0 0 0 0 0 0 0
0 0 0 0 0 0 0 0 0 0 0 0 0 0 0 0 0 0 0 0 0 0 0 0 0 0 0 0 0 0 0 0 0 0 0 0 0 0 0 0 0 0 0 0
0 0 0 0 0 0 0 0 0 0 0 0 0 0 0 0 0 0 0 0 0 0 0 0 0 0 0 0 0 0 0 0 0 0 0 0 0 0 0 0 0 0 0 0
0 0 0 0 0 0 0 0 0 0 0 0 0 0 0 0 0 0 0 0 0 0 0 0 0 0 0 0 0 0 0 0 0 0 0 0 0 0 0 0 0 0 0 0
Height
5812 5813 5813 5814 5814 5814 5814 5814 5814 5814 5813 5812 5811 5810 5809 5808 5806 5805 5804 5803 5801 5800 5798 5796 5794 5793 5791 5789 5787 5785 5784 5782 5780 5779 5777 5776 5775 5773 5772 5770 5768 5767 5765 5764
5807 5807 5807 5808 5809 5809 5809 5809 5808 5808 5808 5806 5805 5805 5803 5802 5800 5799 5798 5797 5795 5794 5792 5790 5788 5786 5784 5782 5780 5778 5777 5775 5774 5772 5771 5769 5768 5766 5765 5763 5762 5760 5759 5757
5801 5801 5801 5802 5803 5803 5803 5803 5802 5802 5802 5800 5799 5798 5797 5796 5794 5793 5792 5790 5789 5787 5785 5783 5781 5779 5777 5775 5773 5771 5770 5768 5766 5765 5763 5762 5761 5759 5758 5756 5755 5753 5752 5750
5795 5796 5796 5799 5797 5797 5797 5796 5796 5794 5794 5793 5792 5792 5791 5790 5788 5786 5785 5783 5782 5780 5778 5776 5774 5771 5769 5767 5765 5764 5762 5760 5759 5757 5756 5754 5753 5752 5751 5749 5747 5746 5744 5742
5789 5789 5790 5792 5791 5790 5790 5790 5789 5788 5787 5787 5786 5785 5784 5782 5781 5779 5778 5776 5774 5772 5770 5768 5766 5764 5762 5759 5757 5756 5754 5752 5751 5749 5748 5746 5745 5744 5742 5741 5739 5738 5736 5734
5782 5783 5783 5786 5785 5783 5784 5783 5783 5782 5781 5780 5779 5778 5777 5775 5773 5772 5770 5768 5767 5764 5762 5760 5758 5756 5754 5751 5749 5748 5746 5744 5743 5741 5740 5738 5737 5735 5734 5732 5731 5729 5727 5725
5776 5776 5776 5778 5777 5778 5778 5777 5776 5775 5774 5773 5772 5771 5770 5767 5766 5764 5763 5761 5759 5756 5754 5752 5750 5748 5745 5743 5741 5739 5737 5736 5734 5733 5731 5729 5728 5727 5725 5724 5722 5720 5718 5717
5770 5770 5772 5771 5770 5771 5770 5769 5769 5768 5767 5766 5765 5763 5762 5760 5758 5757 5755 5753 5750 5748 5746 5743 5741 5739 5737 5735 5732 5730 5728 5727 5725 5723 5722 5720 5719 5717 5716 5714 5713 5711 5709 5708
5764 5765 5764 5764 5764 5763 5763 5762 5761 5761 5760 5758 5757 5756 5754 5752 5750 5748 5747 5745 5742 5740 5737 5735 5733 5730 5728 5726 5723 5721 5719 5717 5715 5714 5712 5710 5709 5708 5706 5704 5703 5701 5700 5698
5756 5757 5757 5757 5756 5756 5755 5754 5754 5753 5752 5750 5749 5748 5746 5744 5742 5740 5738 5736 5733 5731 5728 5726 5723 5721 5719 5716 5714 5712 5709 5707 5705 5704 5702 5701 5699 5698 5696 5695 5693 5691 5690 5689
5749 5750 5749 5749 5748 5748 5747 5747 5746 5745 5744 5742 5741 5739 5738 5736 5734 5732 5729 5727 5724 5722 5719 5716 5714 5712 5709 5707 5704 5702 5700 5698 5696 5694 5692 5691 5689 5687 5686 5684 5683 5681 5680 5678
5742 5742 5741 5741 5740 5740 5739 5738 5737 5737 5736 5734 5733 5731 5729 5728 5725 5723 5721 5718 5715 5713 5710 5707 5705 5702 5700 5697 5695 5693 5690 5688 5686 5685 5683 5681 5679 5677 5675 5674 5672 5671 5669 5668
5733 5733 5733 5733 5732 5732 5731 5730 5729 5728 5727 5725 5724 5722 5721 5719 5717 5715 5712 5710 5707 5704 5701 5698 5695 5693 5690 5688 5685 5683 5681 5679 5677 5675 5673 5671 5669 5667 5666 5665 5663 5661 5659 5657
5724 5725 5725 5725 5724 5723 5722 5721 5720 5719 5718 5716 5715 5714 5712 5710 5708 5706 5704 5701 5698 5695 5692 5689 5686 5684 5681 5678 5676 5674 5672 5670 5668 5665 5663 5661 5659 5657 5655 5654 5653 5651 5649 5647
5716 5716 5716 5716 5715 5714 5713 5712 5711 5710 5709 5708 5706 5705 5703 5702 5700 5697 5695 5692 5689 5686 5683 5680 5678 5675 5672 5669 5667 5665 5663 5660 5658 5656 5653 5651 5649 5647 5645 5644 5642 5641 5639 5637
5707 5707 5707 5706 5706 5705 5704 5703 5702 5701 5700 5699 5697 5696 5694 5692 5690 5688 5686 5683 5680 5677 5674 5671 5669 5666 5663 5661 5658 5656 5653 5651 5648 5646 5644 5642 5639 5638 5636 5634 5632 5631 5629 5627
5698 5698 5697 5697 5696 5696 5695 5694 5693 5692 5690 5689 5688 5686 5685 5683 5680 5678 5676 5673 5671 5668 5665 5662 5659 5657 5654 5652 5649 5646 5644 5642 5639 5637 5635 5633 5631 5629 5627 5625 5623 5621 5620 5618
5689 5688 5688 5687 5687 5686 5685 5684 5683 5682 5681 5679 5678 5676 5675 5673 5671 5669 5666 5664 5661 5659 5656 5653 5650 5647 5645 5642 5639 5637 5635 5632 5630 5628 5625 5623 5621 5619 5617 5615 5613 5611 5610 5608
5680 5679 5679 5678 5677 5677 5676 5675 5673 5672 5671 5669 5668 5666 5665 5663 5661 5658 5656 5654 5651 5649 5646 5643 5640 5637 5635 5632 5630 5627 5625 5623 5621 5618 5616 5614 5612 5610 5608 5605 5603 5601 5599 5597
5670 5670 5669 5669 5668 5667 5666 5665 5664 5663 5661 5659 5658 5656 5654 5653 5650 5648 5646 5643 5641 5639 5636 5633 5630 5628 5625 5622 5620 5617 5615 5613 5610 5608 5606 5604 5602 5600 5597 5595 5593 5591 5589 5587
5661 5661 5660 5659 5659 5657 5656 5655 5654 5653 5651 5649 5648 5646 5644 5642 5640 5638 5635 5633 5631 5628 5626 5623 5621 5618 5615 5612 5610 5607 5605 5602 5600 5598 5596 5594 5592 5589 5587 5585 5583 5580 5578 5576
5652 5652 5651 5650 5649 5648 5647 5645 5644 5643 5641 5639 5637 5635 5634 5632 5629 5627 5625 5623 5621 5618 5616 5613 5610 5608 5605 5602 5599 5597 5594 5592 5590 5588 5586 5583 5581 5579 5577 5575 5572 5570 5568 5565
5644 5643 5642 5641 5640 5638 5637 5636 5634 5633 5631 5629 5627 5625 5623 5621 5619 5617 5615 5613 5610 5608 5605 5602 5600 5597 5594 5592 5589 5587 5584 5582 5580 5577 5575 5573 5571 5569 5567 5564 5562 5559 5557 5555
5634 5634 5633 5631 5630 5629 5628 5626 5625 5623 5621 5619 5617 5615 5612 5610 5608 5606 5604 5602 5599 5597 5594 5592 5589 5587 5584 5581 5579 5576 5574 5572 5569 5567 5565 5563 5560 5558 5556 5554 5551 5549 5547 5545
5625 5624 5623 5622 5620 5619 5618 5616 5614 5613 5611 5609 5607 5604 5602 5600 5598 5596 5593 5591 5589 5586 5584 5581 5579 5576 5573 5571 5569 5566 5564 5561 5559 5557 5555 5552 5550 5548 5546 5544 5541 5539 5537 5535
5615 5614 5613 5612 5611 5609 5607 5606 5604 5602 5600 5598 5596 5594 5592 5589 5587 5585 5582 5580 5578 5575 5573 5571 5568 5565 5563 5560 5558 5556 5553 5551 5548 5546 5544 5542 5540 5538 5536 5534 5531 5529 5527 5525
5605 5604 5603 5602 5600 5599 5597 5595 5594 5592 5590 5588 5585 5583 5581 5578 5576 5574 5571 5569 5567 5564 5562 5560 5557 5554 5552 5550 5547 5545 5543 5540 5538 5535 5533 5532 5530 5528 5526 5524 5522 5520 5518 5516
Wind_Speed
19 20 20 20 20 21 21 21 22 22 23 23 24 25 24 25 25 25 24 24 24 24 24 24 25 25 25 25 25 25 25 25 25 25 25 25 25 24 25 25 25 24 24 24
21 21 22 22 22 22 22 22 22 23 24 24 24 25 25 26 25 25 25 25 25 25 26 26 26 26 26 26 26 26 26 26 26 25 25 25 25 25 25 25 25 25 25 25
23 22 23 22 22 22 23 23 24 24 25 25 25 25 25 25 26 26 26 26 26 27 28 28 28 27 27 28 28 27 27 27 27 27 26 26 26 26 26 26 26 26 26 26
23 23 23 22 22 23 23 23 24 25 25 26 27 27 26 26 27 28 28 27 28 28 28 28 28 28 29 29 29 28 28 28 28 28 28 28 28 28 28 27 27 27 27 27
24 24 24 23 23 24 24 24 24 24 24 25 26 26 27 27 27 28 29 29 29 29 29 29 29 30 30 30 29 29 29 29 29 29 29 29 29 29 29 28 28 29 28 28
25 25 25 24 23 24 24 24 23 24 24 25 26 26 27 28 28 28 29 29 30 30 30 30 30 31 31 30 31 30 30 30 30 30 30 30 30 30 30 30 29 29 29 29
26 26 27 26 25 25 25 25 25 25 26 27 27 27 28 28 28 29 30 30 30 31 31 31 31 31 31 31 31 32 31 31 31 31 31 32 32 32 32 31 31 30 30 29
25 26 27 26 27 26 26 26 27 27 27 28 28 28 29 29 30 31 31 31 31 32 32 32 32 32 32 32 32 32 32 33 32 33 33 33 33 32 32 32 32 31 31 30
26 26 26 25 27 28 28 28 28 27 27 28 29 29 30 31 31 31 31 32 32 32 32 33 32 32 32 33 33 33 33 33 33 33 34 34 34 33 32 32 32 32 32 31
26 27 27 27 27 28 28 28 29 29 28 28 29 30 30 30 31 31 32 32 32 33 33 33 33 33 33 34 34 34 34 34 34 34 34 34 35 34 33 33 33 33 32 32
27 28 29 29 29 29 29 29 29 30 30 30 30 30 30 31 31 32 32 33 33 33 33 33 33 33 33 34 34 34 34 33 33 34 34 34 34 34 34 34 34 34 33 33
28 28 28 29 30 30 30 30 31 31 31 31 31 30 30 30 31 31 32 32 32 33 33 33 33 33 33 34 34 33 33 33 32 32 33 33 33 33 33 33 34 34 33 33
30 29 29 29 29 30 30 30 31 31 31 32 32 31 31 31 31 31 31 32 32 33 33 33 33 33 33 33 33 33 33 33 32 32 33 34 34 34 33 33 33 33 32 33
31 31 30 30 30 30 30 30 31 31 31 32 32 31 31 31 31 32 32 33 33 33 33 33 33 33 33 33 33 33 33 33 33 33 33 34 34 34 34 33 34 33 32 33
31 31 31 31 31 31 31 31 31 31 31 32 32 33 32 32 32 33 33 33 33 33 33 33 33 33 33 33 33 33 34 34 34 34 34 34 33 33 32 33 33 32 32 32
31 31 32 32 32 32 32 32 32 32 32 32 33 33 33 33 33 33 33 33 33 32 33 33 33 33 33 33 34 34 34 34 34 34 34 33 32 32 31 32 32 32 32 32
31 31 31 32 32 33 33 33 32 33 33 33 33 33 33 33 33 33 33 33 33 33 33 33 34 34 34 34 34 34 34 34 34 34 34 33 32 32 32 31 31 31 31 32
31 31 31 32 32 33 33 33 33 34 34 34 34 34 34 34 34 33 33 33 33 34 34 34 34 34 34 34 34 34 33 33 33 34 33 32 32 32 32 32 32 32 32 32
30 31 31 32 32 32 33 33 33 33 34 34 33 33 34 35 35 35 34 33 34 34 34 34 34 34 34 34 33 33 33 33 33 32 32 33 32 32 32 32 32 32 33 33
31 31 31 31 32 32 33 33 33 34 34 34 34 34 34 35 35 36 35 35 34 34 34 35 35 35 35 34 34 34 34 34 34 34 34 33 33 33 33 33 34 34 34 34
30 30 31 31 32 32 33 33 33 34 34 34 34 35 35 35 36 36 36 35 35 35 35 35 35 34 34 35 35 35 34 34 33 33 33 33 33 33 33 33 33 34 34 34
30 30 30 31 32 33 33 34 34 34 34 34 35 35 36 36 36 37 36 35 35 35 35 35 35 35 35 35 35 35 34 34 33 33 33 33 33 33 33 33 33 33 33 33
30 31 31 31 31 31 32 32 33 33 33 34 34 35 36 36 36 36 35 35 35 35 35 35 35 35 36 35 35 34 34 34 33 33 33 33 34 34 33 33 33 33 33 32
31 31 31 31 31 31 32 32 32 33 33 34 35 35 36 36 35 35 35 35 35 35 35 35 35 35 35 35 35 34 34 34 34 34 33 34 34 34 34 33 33 32 31 31
32 32 32 32 32 32 32 33 33 33 34 34 35 35 35 35 35 35 35 35 35 35 35 35 35 35 35 35 34 34 33 34 34 34 33 33 34 34 33 33 32 32 31 30
33 33 33 33 33 33 33 33 34 34 34 35 35 36 36 35 35 35 35 35 35 35 35 35 35 35 35 34 34 33 33 34 34 33 33 33 33 33 32 32 31 30 29 29
33 33 33 34 34 34 34 34 35 35 35 35 36 36 36 36 36 35 35 35 35 35 35 35 35 35 35 34 34 34 33 33 33 32 32 32 33 32 31 31 30 29 28 28
Wind_Direction
255 258 260 263 265 268 270 270 269 270 272 276 280 283 286 286 287 290 291 293 293 293 294 294 293 292 292 291 290 290 290 290 291 291 291 292 293 294 295 296 297 296 295 294
256 260 263 263 265 267 269 271 270 271 272 274 277 280 284 284 284 287 290 291 292 292 292 293 293 292 291 290 289 290 289 289 290 291 291 291 291 292 294 295 296 296 294 293
259 261 264 265 267 269 271 272 273 274 273 272 274 277 281 285 286 287 287 288 290 290 291 292 292 292 291 290 289 289 289 289 289 289 289 290 290 291 292 293 294 294 293 292
262 262 264 269 270 272 274 275 275 276 275 275 276 278 281 283 285 286 286 288 289 290 290 291 291 291 291 290 290 289 289 288 288 288 288 288 289 290 291 292 291 291 292 291
263 265 268 271 273 275 276 276 276 278 278 279 280 282 283 283 285 287 289 290 290 290 291 291 291 291 291 290 289 289 289 288 288 287 286 286 288 289 290 291 291 290 290 291
264 267 269 272 274 275 276 276 276 279 280 281 281 282 283 284 286 288 289 291 292 291 291 291 290 290 289 289 289 289 288 288 288 287 286 286 287 288 288 290 291 290 289 289
263 266 269 272 273 274 273 277 278 279 281 282 283 283 284 285 286 287 289 289 290 291 290 291 291 291 290 289 289 288 287 288 287 287 286 286 286 287 288 288 289 289 288 288
264 266 269 271 272 275 276 278 280 281 281 283 283 284 285 286 286 288 289 290 290 290 290 291 291 291 290 290 289 288 288 288 287 287 286 285 285 286 287 287 288 288 288 287
263 267 270 271 273 275 277 277 278 279 280 281 282 284 285 287 287 288 289 290 291 290 289 290 290 290 290 290 289 289 288 288 287 286 286 286 286 286 287 287 288 288 287 286
265 266 268 269 272 273 277 277 276 277 279 280 282 284 285 286 287 288 289 290 291 291 290 290 290 290 290 289 289 289 289 288 287 287 287 287 287 287 287 288 287 288 287 286
266 268 269 269 271 273 275 277 278 278 279 280 282 285 287 287 287 289 289 290 291 291 291 290 290 290 290 290 290 290 289 289 288 288 288 288 287 287 287 287 287 288 288 286
268 270 270 269 270 272 275 277 278 278 278 280 282 285 287 289 290 290 291 292 293 293 292 292 291 291 291 291 292 291 291 290 289 289 289 289 287 286 286 287 287 288 288 287
268 268 270 273 275 277 276 278 278 278 279 280 282 285 287 288 290 291 291 293 294 295 295 294 293 293 292 291 291 291 291 290 290 289 290 289 288 286 285 286 287 287 287 286
268 270 272 275 277 278 279 280 281 280 279 281 283 284 286 287 289 291 292 292 293 294 294 294 294 294 293 292 291 291 291 291 290 290 291 289 288 287 285 285 286 287 287 287
269 270 272 274 276 277 278 280 281 281 281 282 283 284 286 287 288 290 293 294 294 294 294 294 294 294 293 292 291 291 291 291 291 291 292 291 289 289 289 287 286 287 288 288
271 272 272 273 274 276 278 280 281 281 282 283 283 284 285 287 288 290 293 294 294 294 294 293 293 293 293 293 292 292 292 292 292 291 292 292 291 290 289 288 287 287 288 288
273 274 274 274 274 276 278 280 281 281 283 284 284 284 285 287 289 290 291 293 293 293 293 293 293 292 292 293 293 293 293 292 291 292 292 292 292 291 290 288 288 288 289 288
275 275 275 275 275 276 278 279 280 281 282 283 284 284 285 286 289 290 291 292 293 292 292 293 293 293 293 293 293 293 292 292 292 291 291 291 291 291 290 289 288 287 288 288
274 275 276 277 277 277 278 279 279 281 282 284 284 285 286 288 290 291 291 291 291 292 293 293 293 294 293 293 292 291 291 291 292 292 292 292 291 291 291 291 290 289 289 288
274 275 276 278 278 279 279 280 281 281 283 284 284 284 285 288 289 291 291 291 292 292 293 293 293 294 295 294 294 293 292 292 291 291 292 292 292 291 291 291 290 288 288 289
276 277 278 278 278 279 280 281 282 282 283 284 285 285 286 287 288 289 290 291 292 292 292 292 293 294 294 294 293 293 292 291 291 292 292 292 292 292 291 291 290 290 289 289
277 277 278 280 280 281 282 282 282 283 283 285 285 286 287 287 288 289 289 290 290 291 291 292 292 293 294 293 293 292 292 292 292 293 293 293 293 292 292 291 291 290 290 289
277 278 279 281 282 282 283 282 283 284 285 286 286 287 287 288 288 288 288 289 289 291 292 292 291 292 293 293 293 292 292 292 293 293 293 293 293 292 292 291 290 290 290 290
278 279 280 281 282 283 284 284 284 285 286 287 288 288 289 289 289 288 288 289 289 290 291 292 292 293 293 292 292 292 292 292 292 292 293 293 292 292 291 291 292 292 291 290
279 280 281 281 281 283 284 285 286 286 287 288 289 290 290 290 290 289 289 289 289 290 290 291 293 293 293 292 291 291 292 292 291 291 291 291 292 291 291 291 291 291 290 289
277 278 280 281 283 284 285 286 287 287 288 289 289 290 290 290 290 290 290 289 289 289 291 292 293 293 293 293 291 291 291 291 290 289 289 290 291 292 291 291 291 291 290 289
276 277 279 281 283 285 287 288 289 289 290 290 290 290 290 290 290 291 291 290 289 290 291 292 293 293 293 292 291 291 292 291 290 289 290 291 291 291 291 290 290 290 289 289